When you browse on this site, cookies collect data to enhance your experience and personalize the content and advertising you see.
Visit our Privacy Policy to learn more. By continuing to use the site, you agree to this use of cookies and data.
  • In Hungary
  • List of Countries
  • For 7 days
  • Water Temperature
  • Weather Map
  • News
  • Weather Widgets
  • user-avatar
    Login

    Hourly Weather Chobykovo

    Today, 24 September, Tuesday

    Time Temperature Precipitation Wind Pressure Humidity
    00:00 -2°C° 0 mm 3 mps 743 mmHg 95%
    01:00 -4°C° 0 mm 3 mps 743 mmHg 95%
    02:00 -4°C° 0 mm 3 mps 744 mmHg 96%
    03:00 -4°C° 0 mm 3 mps 744 mmHg 96%
    04:00 -4°C° 0 mm 3 mps 745 mmHg 96%
    05:00 -4°C° 0 mm 3 mps 745 mmHg 96%
    06:00 -4°C° 0 mm 3 mps 745 mmHg 96%
    07:00 -1°C° 0 mm 3 mps 746 mmHg 89%
    08:00 0°C° 0 mm 3 mps 746 mmHg 82%
    09:00 +1°C° 0 mm 4 mps 746 mmHg 75%
    10:00 +3°C° 0 mm 4 mps 746 mmHg 70%
    11:00 +3°C° 0 mm 5 mps 746 mmHg 66%
    12:00 +5°C° 0 mm 5 mps 746 mmHg 62%
    13:00 +3°C° 0.1 mm 5 mps 746 mmHg 68%
    14:00 +3°C° 0.1 mm 5 mps 747 mmHg 74%
    15:00 +3°C° 0.1 mm 5 mps 747 mmHg 80%
    16:00 +2°C° 0 mm 5 mps 747 mmHg 83%
    17:00 +1°C° 0 mm 4 mps 747 mmHg 85%
    18:00 +2°C° 0 mm 3 mps 747 mmHg 88%
    19:00 +1°C° 0 mm 3 mps 747 mmHg 90%
    20:00 0°C° 0 mm 4 mps 747 mmHg 93%
    21:00 0°C° 0 mm 4 mps 747 mmHg 95%
    22:00 +1°C° 0 mm 3 mps 747 mmHg 95%
    23:00 +1°C° 0 mm 3 mps 747 mmHg 95%

    Tomorrow, 25 September, Wednesday

    Time Temperature Precipitation Wind Pressure Humidity
    00:00 +1°C° 0 mm 3 mps 747 mmHg 95%
    01:00 +1°C° 0 mm 3 mps 747 mmHg 95%
    02:00 +1°C° 0 mm 3 mps 748 mmHg 96%
    03:00 +1°C° 0 mm 3 mps 748 mmHg 96%
    04:00 +1°C° 0 mm 3 mps 748 mmHg 96%
    05:00 +1°C° 0 mm 3 mps 748 mmHg 95%
    06:00 +1°C° 0 mm 3 mps 748 mmHg 94%
    07:00 0°C° 0 mm 4 mps 748 mmHg 92%
    08:00 +1°C° 0 mm 4 mps 749 mmHg 90%
    09:00 +1°C° 0 mm 4 mps 749 mmHg 87%
    10:00 +3°C° 0.1 mm 4 mps 749 mmHg 85%
    11:00 +3°C° 0.1 mm 4 mps 749 mmHg 82%
    12:00 +2°C° 0.1 mm 5 mps 749 mmHg 80%
    13:00 +2°C° 0 mm 5 mps 749 mmHg 78%
    14:00 +2°C° 0 mm 5 mps 749 mmHg 76%
    15:00 +2°C° 0 mm 5 mps 750 mmHg 74%
    16:00 +3°C° 0 mm 4 mps 750 mmHg 78%
    17:00 +1°C° 0 mm 4 mps 750 mmHg 82%
    18:00 +1°C° 0 mm 3 mps 750 mmHg 86%
    19:00 0°C° 0 mm 3 mps 750 mmHg 88%
    20:00 0°C° 0 mm 3 mps 750 mmHg 90%
    21:00 -1°C° 0 mm 3 mps 750 mmHg 92%
    22:00 0°C° 0 mm 3 mps 750 mmHg 92%
    23:00 0°C° 0 mm 3 mps 750 mmHg 93%

    Day after tomorrow, 26 September, Thursday

    Time Temperature Precipitation Wind Pressure Humidity
    00:00 0°C° 0 mm 3 mps 750 mmHg 93%
    01:00 -1°C° 0 mm 3 mps 750 mmHg 94%
    02:00 -1°C° 0 mm 3 mps 750 mmHg 95%
    03:00 -2°C° 0 mm 3 mps 750 mmHg 96%
    04:00 -2°C° 0 mm 3 mps 750 mmHg 96%
    05:00 -2°C° 0 mm 3 mps 750 mmHg 96%
    06:00 -2°C° 0 mm 3 mps 750 mmHg 97%
    07:00 -1°C° 0 mm 3 mps 750 mmHg 91%
    08:00 0°C° 0 mm 4 mps 750 mmHg 86%
    09:00 +1°C° 0 mm 4 mps 750 mmHg 80%
    10:00 +3°C° 0.1 mm 4 mps 750 mmHg 75%
    11:00 +3°C° 0.1 mm 5 mps 749 mmHg 70%
    12:00 +5°C° 0.1 mm 5 mps 749 mmHg 64%
    13:00 +5°C° 0.1 mm 5 mps 749 mmHg 65%
    14:00 +5°C° 0.1 mm 5 mps 749 mmHg 66%
    15:00 +5°C° 0.1 mm 5 mps 749 mmHg 67%
    16:00 +3°C° 0.1 mm 5 mps 749 mmHg 72%
    17:00 +3°C° 0.1 mm 4 mps 748 mmHg 76%
    18:00 +3°C° 0.1 mm 4 mps 748 mmHg 80%
    19:00 +1°C° 0 mm 4 mps 748 mmHg 82%
    20:00 +1°C° 0 mm 4 mps 748 mmHg 85%
    21:00 0°C° 0 mm 4 mps 748 mmHg 87%
    22:00 0°C° 0 mm 4 mps 748 mmHg 88%
    23:00 0°C° 0 mm 4 mps 748 mmHg 89%

    27 September, Friday

    Time Temperature Precipitation Wind Pressure Humidity
    00:00 0°C° 0 mm 4 mps 748 mmHg 91%
    01:00 0°C° 0 mm 4 mps 748 mmHg 92%
    02:00 0°C° 0 mm 4 mps 748 mmHg 92%
    03:00 0°C° 0 mm 4 mps 748 mmHg 93%
    04:00 0°C° 0 mm 4 mps 748 mmHg 93%
    05:00 0°C° 0 mm 4 mps 748 mmHg 93%
    06:00 0°C° 0 mm 4 mps 748 mmHg 93%
    07:00 +1°C° 0 mm 3 mps 748 mmHg 93%
    08:00 +1°C° 0 mm 3 mps 748 mmHg 93%
    09:00 +2°C° 0 mm 3 mps 748 mmHg 93%
    10:00 +2°C° 0.1 mm 3 mps 748 mmHg 91%
    11:00 +2°C° 0.1 mm 3 mps 748 mmHg 89%
    12:00 +3°C° 0.1 mm 4 mps 748 mmHg 87%
    13:00 +4°C° 0 mm 4 mps 748 mmHg 85%
    14:00 +4°C° 0 mm 4 mps 748 mmHg 82%
    15:00 +5°C° 0 mm 4 mps 748 mmHg 79%
    16:00 +4°C° 0.1 mm 3 mps 748 mmHg 84%
    17:00 +4°C° 0.1 mm 3 mps 748 mmHg 89%
    18:00 +3°C° 0.1 mm 3 mps 748 mmHg 94%
    19:00 +4°C° 0.1 mm 2 mps 748 mmHg 94%
    20:00 +4°C° 0.1 mm 2 mps 748 mmHg 94%
    21:00 +4°C° 0.1 mm 2 mps 748 mmHg 94%
    22:00 +3°C° 0 mm 2 mps 749 mmHg 95%
    23:00 +2°C° 0 mm 2 mps 749 mmHg 95%

    28 September, Saturday

    Time Temperature Precipitation Wind Pressure Humidity
    00:00 +1°C° 0 mm 2 mps 749 mmHg 95%
    01:00 +1°C° 0 mm 2 mps 749 mmHg 95%
    02:00 +1°C° 0 mm 2 mps 749 mmHg 95%
    03:00 0°C° 0 mm 3 mps 749 mmHg 95%
    04:00 0°C° 0 mm 3 mps 749 mmHg 95%
    05:00 0°C° 0 mm 3 mps 749 mmHg 94%
    06:00 -1°C° 0 mm 3 mps 749 mmHg 94%
    07:00 +1°C° 0 mm 3 mps 749 mmHg 88%
    08:00 +1°C° 0 mm 4 mps 749 mmHg 83%
    09:00 +3°C° 0 mm 4 mps 749 mmHg 77%
    10:00 +4°C° 0 mm 4 mps 749 mmHg 74%
    11:00 +4°C° 0 mm 4 mps 749 mmHg 71%
    12:00 +5°C° 0 mm 4 mps 750 mmHg 67%
    13:00 +5°C° 0 mm 4 mps 750 mmHg 68%
    14:00 +5°C° 0 mm 4 mps 750 mmHg 69%
    15:00 +5°C° 0 mm 4 mps 750 mmHg 69%
    16:00 +4°C° 0 mm 4 mps 750 mmHg 73%
    17:00 +4°C° 0 mm 3 mps 750 mmHg 77%
    18:00 +3°C° 0 mm 3 mps 750 mmHg 80%
    19:00 +3°C° 0 mm 2 mps 750 mmHg 83%
    20:00 +2°C° 0 mm 2 mps 751 mmHg 86%
    21:00 +2°C° 0 mm 2 mps 751 mmHg 89%
    22:00 +1°C° 0 mm 2 mps 751 mmHg 89%
    23:00 +2°C° 0 mm 1 mps 751 mmHg 90%

    29 September, Sunday

    Time Temperature Precipitation Wind Pressure Humidity
    00:00 +1°C° 0 mm 1 mps 751 mmHg 91%
    01:00 +1°C° 0 mm 1 mps 751 mmHg 91%
    02:00 +1°C° 0 mm 1 mps 751 mmHg 91%
    03:00 +1°C° 0 mm 1 mps 751 mmHg 91%
    04:00 +1°C° 0 mm 1 mps 751 mmHg 91%
    05:00 +1°C° 0 mm 1 mps 751 mmHg 92%
    06:00 +1°C° 0 mm 1 mps 751 mmHg 92%
    07:00 +3°C° 0 mm 1 mps 752 mmHg 86%
    08:00 +3°C° 0 mm 2 mps 752 mmHg 79%
    09:00 +5°C° 0 mm 2 mps 752 mmHg 73%
    10:00 +6°C° 0 mm 2 mps 752 mmHg 70%
    11:00 +7°C° 0 mm 2 mps 752 mmHg 66%
    12:00 +8°C° 0 mm 2 mps 752 mmHg 63%
    13:00 +8°C° 0 mm 2 mps 752 mmHg 64%
    14:00 +8°C° 0 mm 2 mps 751 mmHg 64%
    15:00 +8°C° 0 mm 3 mps 751 mmHg 65%
    16:00 +7°C° 0 mm 3 mps 751 mmHg 68%
    17:00 +6°C° 0 mm 2 mps 751 mmHg 70%
    18:00 +5°C° 0 mm 2 mps 751 mmHg 73%
    19:00 +4°C° 0 mm 3 mps 751 mmHg 75%
    20:00 +3°C° 0 mm 3 mps 751 mmHg 78%
    21:00 +2°C° 0 mm 3 mps 751 mmHg 80%
    22:00 +2°C° 0 mm 3 mps 750 mmHg 81%
    23:00 +1°C° 0 mm 4 mps 750 mmHg 82%
    Show more